Time,TemperatureF,DewpointF,PressureIn,WindDirection,WindDirectionDegrees,WindSpeedMPH,WindSpeedGustMPH,Humidity,HourlyPrecipIn,Conditions,Clouds,dailyrainin,SoftwareType,DateUTC
2013-10-23 00:12:00,39.0,18.0,-100.00,NNE,25,2.0,4.0,41,0.00,,,-99.99,,2013-10-23 07:12:00,
2013-10-23 00:22:00,40.0,18.0,-100.00,NE,48,1.0,4.0,41,0.00,,,-99.99,,2013-10-23 07:22:00,
2013-10-23 00:32:00,40.0,18.0,-100.00,NE,48,1.0,4.0,41,0.00,,,-99.99,,2013-10-23 07:32:00,
2013-10-23 00:52:00,40.0,18.0,-100.00,ENE,72,0.0,2.0,41,0.00,,,-99.99,,2013-10-23 07:52:00,
2013-10-23 01:02:00,40.0,18.0,-100.00,NE,52,0.0,1.0,41,0.00,,,-99.99,,2013-10-23 08:02:00,
2013-10-23 01:22:00,39.0,18.0,-100.00,NE,52,0.0,1.0,42,0.00,,,-99.99,,2013-10-23 08:22:00,
2013-10-23 01:42:00,38.0,18.0,-100.00,NE,40,0.0,2.0,44,0.00,,,-99.99,,2013-10-23 08:42:00,
2013-10-23 01:52:00,38.0,18.0,-100.00,NE,34,2.0,3.0,44,0.00,,,-99.99,,2013-10-23 08:52:00,
2013-10-23 02:02:00,38.0,18.0,-100.00,NE,34,2.0,3.0,44,0.00,,,-99.99,,2013-10-23 09:02:00,
2013-10-23 02:21:00,38.0,18.0,-100.00,NE,40,0.0,2.0,44,0.00,,,-99.99,,2013-10-23 09:21:00,
2013-10-23 02:33:00,38.0,18.0,-100.00,NE,40,0.0,2.0,44,0.00,,,-99.99,,2013-10-23 09:33:00,
2013-10-23 02:53:00,37.0,18.0,-100.00,NE,56,0.0,3.0,46,0.00,,,-99.99,,2013-10-23 09:53:00,
2013-10-23 03:03:00,37.0,18.0,-100.00,NE,56,0.0,3.0,46,0.00,,,-99.99,,2013-10-23 10:03:00,
2013-10-23 03:23:00,37.0,18.0,-100.00,NE,55,1.0,3.0,47,0.00,,,-99.99,,2013-10-23 10:23:00,
2013-10-23 03:43:00,37.0,18.0,-100.00,NNE,28,0.0,1.0,46,0.00,,,-99.99,,2013-10-23 10:43:00,
2013-10-23 03:53:00,36.0,19.0,-100.00,East,97,0.0,1.0,48,0.00,,,-99.99,,2013-10-23 10:53:00,
2013-10-23 04:02:00,36.0,19.0,-100.00,East,97,0.0,1.0,48,0.00,,,-99.99,,2013-10-23 11:02:00,
2013-10-23 04:12:00,36.0,19.0,-100.00,East,97,0.0,1.0,48,0.00,,,-99.99,,2013-10-23 11:12:00,
2013-10-23 04:22:00,35.0,19.0,-100.00,NNE,30,3.0,5.0,50,0.00,,,-99.99,,2013-10-23 11:22:00,
2013-10-23 04:33:00,35.0,19.0,-100.00,ENE,64,1.0,4.0,50,0.00,,,-99.99,,2013-10-23 11:33:00,
2013-10-23 04:52:00,35.0,19.0,-100.00,NE,40,0.0,2.0,50,0.00,,,-99.99,,2013-10-23 11:52:00,
2013-10-23 05:12:00,35.0,18.0,-100.00,NE,40,0.0,2.0,50,0.00,,,-99.99,,2013-10-23 12:12:00,
2013-10-23 05:22:00,35.0,19.0,-100.00,NNE,32,2.0,4.0,50,0.00,,,-99.99,,2013-10-23 12:22:00,
2013-10-23 05:32:00,35.0,19.0,-100.00,NNE,32,2.0,4.0,50,0.00,,,-99.99,,2013-10-23 12:32:00,
2013-10-23 05:52:00,35.0,18.0,-100.00,NNE,31,1.0,3.0,50,0.00,,,-99.99,,2013-10-23 12:52:00,
2013-10-23 06:12:00,35.0,18.0,-100.00,NNE,28,0.0,3.0,50,0.00,,,-99.99,,2013-10-23 13:12:00,
2013-10-23 06:21:00,35.0,19.0,-100.00,NE,40,1.0,3.0,51,0.00,,,-99.99,,2013-10-23 13:21:00,
2013-10-23 06:32:00,35.0,19.0,-100.00,ENE,64,0.0,3.0,51,0.00,,,-99.99,,2013-10-23 13:32:00,
2013-10-23 06:52:00,34.0,19.0,-100.00,NE,35,1.0,3.0,52,0.00,,,-99.99,,2013-10-23 13:52:00,
2013-10-23 07:11:00,34.0,19.0,-100.00,NE,35,1.0,3.0,53,0.00,,,-99.99,,2013-10-23 14:11:00,
2013-10-23 07:22:00,34.0,19.0,-100.00,NE,37,0.0,4.0,54,0.00,,,-99.99,,2013-10-23 14:22:00,
2013-10-23 07:32:00,34.0,19.0,-100.00,NE,37,0.0,4.0,54,0.00,,,-99.99,,2013-10-23 14:32:00,
2013-10-23 07:42:00,34.0,19.0,-100.00,NE,37,0.0,4.0,54,0.00,,,-99.99,,2013-10-23 14:42:00,
2013-10-23 07:52:00,35.0,19.0,-100.00,NE,34,1.0,3.0,53,0.00,,,-99.99,,2013-10-23 14:52:00,
2013-10-23 08:01:00,35.0,19.0,-100.00,NE,34,1.0,3.0,53,0.00,,,-99.99,,2013-10-23 15:01:00,
2013-10-23 08:22:00,34.0,19.0,-100.00,NE,35,1.0,4.0,54,0.00,,,-99.99,,2013-10-23 15:22:00,
2013-10-23 08:43:00,35.0,20.0,-100.00,NE,41,1.0,3.0,55,0.00,,,-99.99,,2013-10-23 15:43:00,
2013-10-23 08:53:00,36.0,21.0,-100.00,NE,44,0.0,1.0,54,0.00,,,-99.99,,2013-10-23 15:53:00,
2013-10-23 09:03:00,36.0,21.0,-100.00,NE,44,0.0,1.0,54,0.00,,,-99.99,,2013-10-23 16:03:00,
2013-10-23 09:23:00,39.0,22.0,-100.00,NE,49,0.0,1.0,51,0.00,,,-99.99,,2013-10-23 16:23:00,
2013-10-23 09:42:00,43.0,24.0,-100.00,NE,48,0.0,2.0,47,0.00,,,-99.99,,2013-10-23 16:42:00,
2013-10-23 10:22:00,50.0,23.0,-100.00,SSW,210,0.0,1.0,34,0.00,,,-99.99,,2013-10-23 17:22:00,
2013-10-23 10:33:00,50.0,23.0,-100.00,SSW,210,0.0,1.0,34,0.00,,,-99.99,,2013-10-23 17:33:00,
2013-10-23 10:52:00,51.0,22.0,-100.00,SSW,195,0.0,3.0,31,0.00,,,-99.99,,2013-10-23 17:52:00,
2013-10-23 11:22:00,53.0,24.0,-100.00,South,185,0.0,3.0,32,0.00,,,-99.99,,2013-10-23 18:22:00,
2013-10-23 11:41:00,54.0,23.0,-100.00,South,182,1.0,3.0,29,0.00,,,-99.99,,2013-10-23 18:41:00,
2013-10-23 11:52:00,56.0,27.0,-100.00,South,182,1.0,3.0,33,0.00,,,-99.99,,2013-10-23 18:52:00,
2013-10-23 12:02:00,56.0,27.0,-100.00,South,182,1.0,3.0,33,0.00,,,-99.99,,2013-10-23 19:02:00,
2013-10-23 12:21:00,56.0,25.0,-100.00,South,182,1.0,4.0,30,0.00,,,-99.99,,2013-10-23 19:21:00,
2013-10-23 12:42:00,58.0,26.0,-100.00,South,172,1.0,5.0,30,0.00,,,-99.99,,2013-10-23 19:42:00,
2013-10-23 12:53:00,58.0,28.0,-100.00,South,181,2.0,5.0,32,0.00,,,-99.99,,2013-10-23 19:53:00,
2013-10-23 13:02:00,58.0,28.0,-100.00,South,181,2.0,5.0,32,0.00,,,-99.99,,2013-10-23 20:02:00,
2013-10-23 13:22:00,58.0,25.0,-100.00,SSE,168,2.0,5.0,28,0.00,,,-99.99,,2013-10-23 20:22:00,
2013-10-23 13:42:00,59.0,28.0,-100.00,SSE,168,2.0,5.0,30,0.00,,,-99.99,,2013-10-23 20:42:00,
2013-10-23 13:52:00,59.0,28.0,-100.00,SSE,168,3.0,7.0,30,0.00,,,-99.99,,2013-10-23 20:52:00,
2013-10-23 14:11:00,59.0,24.0,-100.00,SSE,168,3.0,7.0,25,0.00,,,-99.99,,2013-10-23 21:11:00,
2013-10-23 14:22:00,60.0,33.0,-100.00,South,174,2.0,6.0,37,0.00,,,-99.99,,2013-10-23 21:22:00,
2013-10-23 14:34:00,60.0,33.0,-100.00,South,174,2.0,6.0,37,0.00,,,-99.99,,2013-10-23 21:34:00,
2013-10-23 14:54:00,61.0,32.0,-100.00,ESE,116,2.0,6.0,34,0.00,,,-99.99,,2013-10-23 21:54:00,
2013-10-23 17:22:00,66.0,14.0,-100.00,ENE,71,3.0,8.0,13,0.00,,,-99.99,,2013-10-24 00:22:00,
2013-10-23 17:42:00,66.0,15.0,-100.00,NE,54,2.0,8.0,14,0.00,,,-99.99,,2013-10-24 00:42:00,
2013-10-23 17:52:00,66.0,15.0,-100.00,NE,54,2.0,8.0,14,0.00,,,-99.99,,2013-10-24 00:52:00,
2013-10-23 18:21:00,62.0,15.0,-100.00,ENE,65,3.0,11.0,15,0.00,,,-99.99,,2013-10-24 01:21:00,
2013-10-23 18:42:00,60.0,16.0,-100.00,ENE,71,1.0,5.0,18,0.00,,,-99.99,,2013-10-24 01:42:00,
2013-10-23 18:52:00,60.0,16.0,-100.00,ENE,71,1.0,5.0,18,0.00,,,-99.99,,2013-10-24 01:52:00,
2013-10-23 19:02:00,60.0,16.0,-100.00,NNW,329,0.0,3.0,18,0.00,,,-99.99,,2013-10-24 02:02:00,
2013-10-23 19:22:00,54.0,18.0,-100.00,NNW,347,0.0,3.0,24,0.00,,,-99.99,,2013-10-24 02:22:00,
2013-10-23 20:22:00,51.0,19.0,-100.00,North,-999,0.0,0.0,27,0.00,,,-99.99,,2013-10-24 03:22:00,
2013-10-23 20:44:00,51.0,17.0,-100.00,East,100,0.0,1.0,26,0.00,,,-99.99,,2013-10-24 03:44:00,
2013-10-23 20:55:00,51.0,17.0,-100.00,ENE,75,0.0,2.0,26,0.00,,,-99.99,,2013-10-24 03:55:00,
2013-10-23 21:14:00,49.0,17.0,-100.00,ENE,75,0.0,2.0,28,0.00,,,-99.99,,2013-10-24 04:14:00,
2013-10-23 21:24:00,46.0,17.0,-100.00,NNE,14,0.0,3.0,30,0.00,,,-99.99,,2013-10-24 04:24:00,
2013-10-23 21:35:00,46.0,17.0,-100.00,ESE,112,0.0,2.0,30,0.00,,,-99.99,,2013-10-24 04:35:00,
2013-10-23 21:54:00,45.0,18.0,-100.00,NE,51,2.0,3.0,33,0.00,,,-99.99,,2013-10-24 04:54:00,
2013-10-23 22:13:00,46.0,18.0,-100.00,NE,51,2.0,3.0,32,0.00,,,-99.99,,2013-10-24 05:13:00,
2013-10-23 22:22:00,43.0,17.0,-100.00,NE,51,2.0,3.0,35,0.00,,,-99.99,,2013-10-24 05:22:00,
2013-10-23 22:33:00,43.0,17.0,-100.00,NE,49,0.0,2.0,35,0.00,,,-99.99,,2013-10-24 05:33:00,
2013-10-23 22:43:00,43.0,17.0,-100.00,NE,49,0.0,2.0,35,0.00,,,-99.99,,2013-10-24 05:43:00,
2013-10-23 23:12:00,41.0,17.0,-100.00,East,86,0.0,2.0,37,0.00,,,-99.99,,2013-10-24 06:12:00,
2013-10-23 23:21:00,41.0,16.0,-100.00,ENE,65,0.0,1.0,36,0.00,,,-99.99,,2013-10-24 06:21:00,
2013-10-23 23:32:00,41.0,16.0,-100.00,ENE,65,0.0,1.0,36,0.00,,,-99.99,,2013-10-24 06:32:00,
2013-10-23 23:42:00,41.0,16.0,-100.00,ENE,65,0.0,1.0,36,0.00,,,-99.99,,2013-10-24 06:42:00,
2013-10-23 23:52:00,40.0,17.0,-100.00,NNE,32,1.0,3.0,39,0.00,,,-99.99,,2013-10-24 06:52:00,